Regional Weather Roundup
Issued by NWS

Home | Current Version | Previous Version | Graphics & Text | Print | Product List | Glossary On
Versions: 1 2 3 4 5 6 7 8 9 10 11 12 13 14 15 16 17 18 19 20 21 22 23 24 25 26 27 28 29 30 31 32 33 34 35 36 37 38 39 40 41 42 43 44 45 46 47 48 49 50
000
ASUS43 KLOT 272202
RWRIL

ILLINOIS REGIONAL WEATHER ROUNDUP
NATIONAL WEATHER SERVICE CHICAGO/ROMEOVILLE IL
500 PM CDT MON APR 27 2015

NOTE: "FAIR" INDICATES FEW OR NO CLOUDS BELOW 12,000 FEET WITH NO
SIGNIFICANT WEATHER AND/OR OBSTRUCTIONS TO VISIBILITY.

* THESE STATIONS ARE NOT UNDER NWS QUALITY CONTROL. THEY ALSO MAY NOT
  REPORT WEATHER SUCH AS PRECIPITATION OR FOG.

ILZ001-002-007-009-015-016-024-272300-
NORTHWEST ILLINOIS

CITY           SKY/WX    TMP DP  RH WIND       PRES   REMARKS
MOLINE         SUNNY     66  33  29 NE10      30.08F
STERLING*      SUNNY     64  36  34 N12G22    30.09S
$$

ILZ003-004-008-010-011-017-018-272300-
NORTH CENTRAL ILLINOIS

CITY           SKY/WX    TMP DP  RH WIND       PRES   REMARKS
ROCKFORD       MOSUNNY   65  32  29 N13G20    30.10F
FREEPORT*      SUNNY     64  31  29 N15G21    30.10F
$$

ILZ005-006-012>014-019>023-272300-
NORTHEAST ILLINOIS

CITY           SKY/WX    TMP DP  RH WIND       PRES   REMARKS
CHICAGO-OHARE  MOSUNNY   51  33  50 NE17      30.12S
CHICAGO-MIDWAY MOSUNNY   52  34  50 NE20      30.13S
AURORA         SUNNY     60  37  42 NE17      30.09R
LANSING*       SUNNY     49  32  51 N16G24    30.13S
WAUKEGAN       SUNNY     48  34  58 N14G20    30.13S
DUPAGE AIRPORT SUNNY     55  36  48 E15       30.10R
WHEELING       SUNNY     50  33  52 NE14      30.15S
NORTHERLY ISL    N/A     46  36  68 N10         N/A
$$

LMZ740>746-272300-
SOUTHERN LAKE MICHIGAN

STATION/POSITION SKY/WX   TEMP    WIND        PRES    VSBY  WAVE
                          AIR SEA DIR/SP/G                  HT/PER
                          (F)     (DEG/KT/KT) (MB)    (MI)  (FT/S)
HARRISON CRIB              41     350/  8/ 10   N/A
BURNHAM HARBOR             47     350/  9/ 11   N/A
CALUMET HARBOR             46     350/  9/ 13   N/A
BURNS HARBOR               44      10/  9/ 10 1020.7S
MICHIGAN CITY              43     360/ 15/ 18   N/A
MICHIGAN CITY 6N           42 45   20/ 12/ 16   N/A           4/ 5
$$

ILZ025>027-034>036-040-047-049-050-058-095>099-272300-
WEST-CENTRAL ILLINOIS

CITY           SKY/WX    TMP DP  RH WIND       PRES   REMARKS
QUINCY         SUNNY     65  36  34 NE13      30.07S
MACOMB*        SUNNY     65  34  32 NE16G22   30.10R
$$

ILZ028>032-037-038-041>044-048-051>054-059>061-272300-
CENTRAL ILLINOIS

CITY           SKY/WX    TMP DP  RH WIND       PRES   REMARKS
DECATUR        SUNNY     62  38  40 NE20      30.05F
PEORIA         SUNNY     65  35  33 N14G23    30.07F
LINCOLN*       SUNNY     64  37  37 N17G24    30.05S
SPRINGFIELD    SUNNY     65  37  35 N13       30.06S
TAYLORVILLE    NOT AVBL
$$

ILZ033-039-045-046-055>057-062-063-272300-
EAST-CENTRAL ILLINOIS

CITY           SKY/WX    TMP DP  RH WIND       PRES   REMARKS
CHAMPAIGN      SUNNY     61  37  41 N16G26    30.05F
MATTOON        SUNNY     61  37  41 NE21G26   30.03F
$$

ILZ079-100>102-272300-
SOUTHWEST ILLINOIS

CITY           SKY/WX    TMP DP  RH WIND       PRES   REMARKS
ALTON          MOSUNNY   64  28  25 N14       30.06R
BELLEVILLE     MOSUNNY   66  40  38 NE14G20   30.04S
CAHOKIA*       MOSUNNY   67  38  34 NE17      30.04S
SPARTA*        MOSUNNY   63  40  43 N14G20    30.04F
$$

ILZ064>066-069>071-074>076-080>082-084>086-088>090-092>094-272300-
SOUTH-CENTRAL ILLINOIS

CITY           SKY/WX    TMP DP  RH WIND       PRES   REMARKS
CARBONDALE     SUNNY     66  38  35 N9        30.01F
MARION         PTSUNNY   66  39  37 NE14      30.02F
MT. VERNON     SUNNY     63  39  42 N13       30.04S
SALEM*         SUNNY     66  37  34 N13G20    30.04S
$$

ILZ067-068-072-073-078-083-087-091-272300-
SOUTHEAST ILLINOIS

CITY           SKY/WX    TMP DP  RH WIND       PRES   REMARKS
LAWRENCEVILLE  SUNNY     63  39  41 N20       30.03R
FLORA*         MOSUNNY   63  39  41 N13G18    30.04S
HARRISBURG*    SUNNY     64  39  39 N13       30.02F
ROBINSON*      SUNNY     61  37  41 N18       30.04S
CARMI*         SUNNY     64  34  32 N13       30.01F
$$

ABBREVIATIONS USED IN REMARKS
   TC - TEMPERATURE IN CELSIUS
  WCI - WIND CHILL INDEX
   HX - HEAT INDEX
  VSB - VISIBILITY
$$



USA.gov is the U.S. government's official web portal to all federal, state and local government web resources and services.